Hourly Data Report for November 12, 2019

EUREKA CLIMATE
NUNAVUT
Current Station Operator: ECCC - MSC

79°59'21.000" N
85°56'02.000" W
10.00 m
2401199
71613
NEK

Download Data

Hourly Data (November 2019)
Hourly Data Report for November 12, 2019
TIME
LST
Temp Definition
°C
Dew Point Definition
°C
Rel Hum Definition
%
Precip. Amount Definition
mm

Wind Dir Definition
10's deg

Wind Spd Definition
km/h
Visibility Definition
km
Stn Press Definition
kPa
Hmdx Definition


Wind Chill Definition


Weather Definition


00:00 -36.2 -39.7 70 0.0 34 4   101.12   -41 LegendNANA
01:00 -35.9 -39.4 70 0.0 1 1   101.11   -37 LegendNANA
02:00 -35.8 -39.4 70 0.0 9 3   101.16   -40 LegendNANA
03:00 -36.4 -39.9 69 0.0 2 4   101.17   -42 LegendNANA
04:00 -35.9 -39.5 70 0.0 11 5   101.20   -42 LegendNANA
05:00 -36.4 -40.0 69 0.0 9 2   101.18   -39 LegendNANA
06:00 -36.3 -39.9 69 0.0 10 3   101.19   -40 LegendNANA
07:00 -36.9 -40.5 69 0.0 5 2   101.22   -40 LegendNANA
08:00 -37.2 -40.9 68 0.0 2 3   101.24   -41 LegendNANA
09:00 -37.3 -41.0 68 0.0 36 3   101.24   -41 LegendNANA
10:00 -36.5 -40.1 69 0.0   0   101.26     LegendNANA
11:00 -35.3 -38.8 70 0.0 11 3   101.28   -39 LegendNANA
12:00 -36.2 -39.7 70 0.0 4 2   101.31   -39 LegendNANA
13:00 -35.9 -39.4 70 0.0 8 1   101.35   -37 LegendNANA
14:00 -36.8 -40.5 69 0.0 6 2   101.37   -39 LegendNANA
15:00 -37.3 -41.0 68 0.0 2 7   101.38   -46 LegendNANA
16:00 -35.8 -39.4 70 0.0 10 4   101.41   -41 LegendNANA
17:00 -37.0 -40.7 68 0.0 3 3   101.44   -41 LegendNANA
18:00 -36.0 -39.6 70 0.0 7 2   101.43   -39 LegendNANA
19:00 -36.4 -40.0 69 0.0 11 6   101.41   -44 LegendNANA
20:00 -36.9 -40.6 69 0.0 11 6   101.44   -44 LegendNANA
21:00 -36.8 -40.4 70 0.0 3 6   101.46   -44 LegendNANA
22:00 -36.3 -39.9 70 0.0 4 4   101.45   -41 LegendNANA
23:00 -36.4 -40.0 69 0.0 8 4   101.52   -42 LegendNANA

Notes on Data Quality.

Legend

  • E = Estimated
  • M = Missing
  • NA = Not Available*
  • [empty] = Indicates an unobserved value
Date modified: